Location: Newark
(15.4608°S, 41.1635°W)
Time: 23:13:19
(UTC+00:00)

Transit 4A - Pass Details

Date: 05 March 2021
Orbit: 869 x 975 km, 66.8° (Epoch: 16 April)

Event Time Altitude Azimuth Distance (km) Brightness Sun altitude
Rises 09:19:50 0° 176° (S) 3,629 11.1 7.3°
Reaches altitude 10° 09:23:21 10° 157° (SSE) 2,697 10.8 8.1°
Maximum altitude 09:27:21 17° 117° (ESE) 2,217 11.4 9.1°
Drops below altitude 10° 09:31:22 10° 77° (ENE) 2,713 12.2 10.0°
Sets 09:34:53 0° 58° (ENE) 3,659 12.0 10.9°
